Location: D�rnast
(49.6426°N, 11.9755°E)
Time: 08:32:13
(UTC+00:00)

N. Korean satellite - Pass Details

Date: 04 December 2021
Orbit: 446 x 491 km, 97.3° (Epoch: 18 January)

Event Time Altitude Azimuth Distance (km) Brightness Sun altitude
Rises 04:43:12 0° 11° (N) 2,474 10.2 -19.8°
Reaches altitude 10° 04:45:15 10° 10° (N) 1,592 9.1 -19.5°
Maximum altitude 04:48:39 75° 285° (WNW) 470 6.2 -18.9°
Drops below altitude 10° 04:52:00 10° 200° (SSW) 1,571 9.1 -18.4°
Sets 04:54:01 0° 198° (SSW) 2,438 10.1 -18.1°
